Location: Newark
(20.0000°S, 47.0000°E)
Time: 12:10:31
(UTC+00:00)

N. Korean satellite - Visible Passes

Search period start: 16 October 2019 00:00
Search period end: 26 October 2019 00:00
Orbit: 455 x 508 km, 97.2° (Epoch: 15 October)

Date Brightness Start Highest point End Pass type
(mag) Time Alt. Az. Time Alt. Az. Time Alt. Az.
16 Oct 9.9 15:16:41 10° SSW 15:19:15 19° WSW 15:21:45 10° WNW visible
17 Oct 9.4 01:40:28 10° NE 01:43:33 25° ESE 01:46:41 10° SSE visible
18 Oct 10.6 01:17:23 10° E 01:18:27 11° ESE 01:19:32 10° ESE visible
19 Oct 10.7 15:36:14 10° WSW 15:36:36 10° WSW 15:36:57 10° W visible
21 Oct 9.8 01:33:05 10° ENE 01:35:50 20° ESE 01:38:36 10° SSE visible
23 Oct 10.3 15:27:07 10° SW 15:28:49 13° WSW 15:30:30 10° WNW visible
24 Oct 8.6 01:49:47 10° NE 01:53:13 36° ESE 01:56:40 10° S visible
25 Oct 10.1 01:25:48 10° ENE 01:28:03 16° ESE 01:30:19 10° SE visible
